Location: *
(13.2257°S, 48.7193°W)
Time: 09:30:29
(UTC+00:00)

Cosmos 2360 Rocket - Pass Details

Date: 13 February 2026
Orbit: 833 x 843 km, 71.0° (Epoch: 11 March)

Event Time Altitude Azimuth Distance (km) Brightness Sun altitude
Rises 08:05:37 0° 181° (S) 3,400 5.6 -16.5°
Reaches altitude 10° 08:08:19 10° 172° (S) 2,459 5.0 -15.9°
Maximum altitude 08:13:20 33° 109° (ESE) 1,380 4.1 -14.8°
Drops below altitude 10° 08:18:18 10° 46° (NE) 2,437 5.0 -13.6°
Sets 08:20:57 0° 36° (NE) 3,364 5.6 -13.0°
